Biggs, California, United States (95917)
Lat: 39.41N, Lon: 121.71W
Wx Zone: CAZ016
Local Info
Past Weather Observations for Saturday, December 13, 2014

NOTE: This archive is for the closest National Weather Service station to Biggs. Information may differ from the station used for current weather conditions.

Click here for Long-term Archive

Time Weather Temperature Dewpoint Humidity Pressure Winds Precip Visibility
23:53
Clear
46°F / 8°C 41°F / 5°C 82% 30.18 in
(1022 mb)
ENE 4.6 mph
(ENE 7 kph)
- 10SM
22:53
Clear
46°F / 8°C 43°F / 6°C 87% 30.21 in
(1023 mb)
NE 4.6 mph
(NE 7 kph)
- 10SM
21:53
Partly Cloudy
48°F / 9°C 45°F / 7°C 87% 30.21 in
(1023 mb)
NE 4.6 mph
(NE 7 kph)
- 10SM
20:53
Overcast
52°F / 11°C 46°F / 8°C 82% 30.21 in
(1023 mb)
Calm - 10SM
19:53
Overcast
52°F / 11°C 46°F / 8°C 82% 30.21 in
(1023 mb)
Calm - 10SM
18:53
Overcast
52°F / 11°C 45°F / 7°C 77% 30.21 in
(1023 mb)
Calm - 10SM
17:53
Mostly Cloudy
48°F / 9°C 45°F / 7°C 87% 30.21 in
(1023 mb)
Calm - 10SM
16:53
Clear
52°F / 11°C 43°F / 6°C 72% 30.21 in
(1023 mb)
Calm - 10SM
15:53
Clear
54°F / 12°C 43°F / 6°C 67% 30.21 in
(1023 mb)
Calm - 10SM
14:53
Clear
54°F / 12°C 45°F / 7°C 72% 30.21 in
(1023 mb)
Calm - 10SM
13:53
Clear
54°F / 12°C 43°F / 6°C 67% 30.21 in
(1023 mb)
SSW 4.6 mph
(SSW 7 kph)
- 10SM
12:53
Clear
54°F / 12°C 45°F / 7°C 72% 30.21 in
(1023 mb)
W 6.9 mph
(W 11 kph)
- 10SM
11:53
Clear
54°F / 12°C 45°F / 7°C 72% 30.21 in
(1023 mb)
NW 3.5 mph
(NW 6 kph)
- 10SM
10:53
Partly Cloudy
52°F / 11°C 46°F / 8°C 82% 30.24 in
(1024 mb)
Variable 3.5 mph
(Variable 6 kph)
- 10SM
10:44
Mostly Cloudy
52°F / 11°C 46°F / 8°C 82% 30.24 in
(1024 mb)
Calm - 10SM
09:53
Mostly Cloudy
52°F / 11°C 46°F / 8°C 82% 30.24 in
(1024 mb)
NW 4.6 mph
(NW 7 kph)
- 10SM
09:37
Mostly Cloudy
50°F / 10°C 45°F / 7°C 82% 30.24 in
(1024 mb)
Calm - 10SM
09:00
Overcast
48°F / 9°C 45°F / 7°C 87% 30.24 in
(1024 mb)
Calm - 10SM
08:53
Overcast
48°F / 9°C 45°F / 7°C 87% 30.24 in
(1024 mb)
Calm - 10SM
07:53
Clear
45°F / 7°C 43°F / 6°C 93% 30.21 in
(1023 mb)
Calm - 10SM
06:53
Clear
45°F / 7°C 43°F / 6°C 93% 30.18 in
(1022 mb)
Calm - 10SM
05:53
Clear
45°F / 7°C 43°F / 6°C 93% 30.18 in
(1022 mb)
Calm - 10SM
04:53
Partly Cloudy
46°F / 8°C 45°F / 7°C 93% 30.15 in
(1021 mb)
NNE 3.5 mph
(NNE 6 kph)
- 10SM
04:41
Mostly Cloudy
46°F / 8°C 45°F / 7°C 93% 30.15 in
(1021 mb)
N 4.6 mph
(N 7 kph)
- 10SM
03:53
Overcast
48°F / 9°C 45°F / 7°C 87% 30.18 in
(1022 mb)
NE 3.5 mph
(NE 6 kph)
- 10SM
03:04
Overcast
48°F / 9°C 46°F / 8°C 94% 30.15 in
(1021 mb)
Calm - 10SM
02:53
Overcast
50°F / 10°C 46°F / 8°C 88% 30.15 in
(1021 mb)
Calm - 10SM
01:53
Overcast
48°F / 9°C 46°F / 8°C 94% 30.12 in
(1020 mb)
NE 4.6 mph
(NE 7 kph)
- 10SM
00:53
Overcast
50°F / 10°C 46°F / 8°C 88% 30.12 in
(1020 mb)
Calm - 10SM
Time Weather Temperature Dewpoint Humidity Pressure Winds Precip Visibility


Weather for websites

WeatherForYou.com, LLC is not responsible for any damages or problems caused by this service. Current weather conditions are obtained from the closest station including government and personal stations which may have varying degrees of accuracy. Weather forecasts are derived from the NOAA NDFD. Like all things, this site belongs to Jesus Christ... He just trusts me to maintain it. If you have any questions or comments email webmaster@weatherforyou.com

Copyright © 2014, WeatherForYou.com LLC. All rights reserved.